Location: Maccacari
(45.1333°N, 11.1333°E)
Time: 16:11:22
(UTC+00:00)

SR - Pass Details

Date: 21 June 2021
Orbit: 577 x 878 km, 66.7° (Epoch: 24 July)

Event Time Altitude Azimuth Distance (km) Brightness Sun altitude
Rises 01:09:44 0° 319° (NW) 3,265 ? -16.8°
Reaches altitude 10° 01:12:29 10° 309° (NW) 2,280 ? -16.6°
Maximum altitude 01:16:53 29° 251° (WSW) 1,298 ? -16.2°
Enters shadow 01:17:58 26° 228° (SW) 1,358 ? -16.1°
